Home > Weather > Augusta > Past weeks

Flag for U.S.A. Weather for the Past 2 Weeks in Augusta, Maine, U.S.A.

Now
34 °F

Sunny.


Feels Like: 29 °F
Forecast: 16 / 33 °F
Wind: 6 mph from Southwest

Location: Augusta State Airport

Current Time: Feb 6, 2016 at 2:20:55 PM

Latest Report: Feb 6, 2016 at 1:53 PM


Visibility: 10 mi

Pressure: 30.20 "Hg

Humidity: 59%

Dew point: 21 °F

Location of AugustaLocation

Historic Weather in Augusta — Graph

°F

Augusta Temperature Yesterday

Maximum temperature yesterday: 37 °F (at 12:53 AM)
Minimum temperature yesterday: 19 °F (at 11:53 PM)
Average temperature yesterday: 28 °F

High & Low Weather Summary for the Past Weeks

 TemperatureHumidityPressure
High53 °F (Feb 1, 12:53 PM)100% (Feb 3, 4:53 PM)30.45 "Hg (Feb 3, 4:53 PM)
Low7 °F (Jan 23, 2:53 AM)30% (Jan 24, 2:53 PM)29.37 "Hg (Jan 29, 1:53 PM)
Average30 °F67%29.96 "Hg
* Reported Jan 22 12:53 PM — Feb 6 12:53 PM, Augusta, Weather by CustomWeather, © 2016

Note: Actual official high and low records may vary slightly from our data, if they occured in-between our weather recording intervals... More about our weather records

Advertising

Augusta Weather History for the Previous 24 Hours

 ConditionsComfort  
Time TempWeatherWind HumidityBarometerVisibility
12:53 PM
Sat, Feb 6
32 °FSunny.7 mph56%30.22 "Hg10 mi
11:53 AM31 °FSunny.10 mph57%30.25 "Hg10 mi
10:53 AM29 °FSunny.7 mph58%30.28 "Hg10 mi
9:53 AM27 °FSunny.5 mph61%30.30 "Hg10 mi
8:53 AM23 °FSunny.6 mph68%30.30 "Hg10 mi
7:53 AM19 °FSunny.5 mph74%30.30 "Hg10 mi
6:53 AM15 °FSunny.5 mph83%30.28 "Hg10 mi
5:53 AM18 °FClear.3 mph74%30.26 "Hg10 mi
4:53 AM18 °FClear.5 mph74%30.25 "Hg10 mi
3:53 AM20 °FClear.5 mph65%30.24 "Hg10 mi
2:53 AM19 °FClear.3 mph71%30.22 "Hg10 mi
1:53 AM19 °FClear.6 mph71%30.20 "Hg10 mi
12:53 AM18 °FClear.5 mph71%30.18 "Hg10 mi
11:53 PM
Fri, Feb 5
19 °FClear.10 mph65%30.16 "Hg10 mi
10:53 PM20 °FClear.12 mph62%30.14 "Hg10 mi
9:53 PM21 °FClear.15 mph65%30.10 "Hg10 mi
8:53 PM23 °FClear.12 mph65%30.08 "Hg10 mi
7:53 PM25 °FClear.9 mph66%30.04 "Hg10 mi
6:53 PM26 °FPassing clouds.12 mph74%30.01 "Hg10 mi
5:53 PM26 °FOvercast.9 mph88%29.99 "Hg9 mi
5:01 PM26 °FLight snow. Ice fog.14 mph88%29.95 "Hg2 mi
3:53 PM26 °FLight snow. Ice fog.14 mph88%29.97 "Hg1 mi
3:03 PM26 °FSnow. Ice fog.16 mph92%29.96 "Hg1 mi
2:53 PM26 °FSnow. Ice fog.17 mph92%29.96 "Hg0 mi
Weather by CustomWeather, © 2016

See weather overviewHow to use our weather pages